Tucumcari, NM

10:18 PM MDT on May 28, 2017 (GMT -0600)
Tucumcari Municipal

Weather History for KTCC - June, 2013

Change the Weather History Date:

Saturday, June 29, 2013

  Actual Average Record
Temperature  
Mean Temperature 86 °F -  
Max Temperature 100 °F 94 °F 108 °F (1957)
Min Temperature 72 °F 65 °F 55 °F (1945)
Cooling Degree Days 22    
Growing Degree Days 36 (Base 50)    
Moisture  
Dew Point 49 °F    
Average Humidity 30    
Maximum Humidity 59    
Minimum Humidity 13    
Precipitation  
Precipitation 0.00 in - - ()
Sea Level Pressure  
Sea Level Pressure 29.91 in    
Wind  
Wind Speed 13 mph (North)    
Max Wind Speed 46 mph    
Max Gust Speed 56 mph    
Visibility 7 miles    
Events Rain    
Averages and records for this station are not official NWS values.
T = Trace of Precipitation, MM = Missing Value Source: NWS Daily Summary

Daily Weather History Graph

Daily Weather History Graph

Search for Another Location

Airport or City:

Trip Planner

Search our weather history database for the weather conditions in past years. The results will help you decide how hot, cold, wet, or windy it might be!

Date:

Astronomy

Jun. 29, 2013 Rise Set
Actual Time 5:42 AM MDT 8:12 PM MDT
Civil Twilight 5:13 AM MDT 8:42 PM MDT
Nautical Twilight 4:36 AM MDT 9:19 PM MDT
Astronomical Twilight 3:55 AM MDT 9:59 PM MDT
Moon No Moon Rise 12:39 PM MDT
Length of Visible Light 15h 29m
Length of Day
14h 30m
Waning Gibbous, 55% of the Moon is Illuminated
Jun 29
Waning Gibbous
Jun 29
Last Quarter
Jul 8
New
Jul 15
First Quarter
Jul 22
Full

Hourly Weather History & Observations

Time (MDT) Temp. Dew Point Humidity Pressure Visibility Wind Dir Wind Speed Gust Speed Precip Events Conditions
12:53 AM 81.0 °F 48.0 °F 31% 29.86 in 10.0 mi Calm Calm - N/A   Clear
1:53 AM 80.1 °F 48.0 °F 32% 29.86 in 10.0 mi NW 9.2 mph - N/A   Clear
2:53 AM 80.1 °F 46.9 °F 31% 29.87 in 10.0 mi Calm Calm - N/A   Clear
3:53 AM 78.1 °F 45.0 °F 31% 29.89 in 10.0 mi Calm Calm - N/A   Clear
4:53 AM 75.9 °F 45.0 °F 33% 29.89 in 10.0 mi West 4.6 mph - N/A   Clear
5:53 AM 73.9 °F 45.0 °F 35% 29.91 in 10.0 mi West 8.1 mph - N/A   Clear
6:53 AM 79.0 °F 48.0 °F 34% 29.90 in 10.0 mi NNW 6.9 mph - N/A   Clear
7:53 AM 81.0 °F 52.0 °F 36% 29.91 in 10.0 mi NNW 10.4 mph - N/A   Clear
8:53 AM 84.9 °F 51.1 °F 31% 29.91 in 10.0 mi North 12.7 mph - N/A   Clear
9:53 AM 88.0 °F 50.0 °F 27% 29.91 in 10.0 mi NNE 11.5 mph 18.4 mph N/A   Clear
10:53 AM 91.0 °F 50.0 °F 24% 29.90 in 10.0 mi NNE 12.7 mph 17.3 mph N/A   Clear
11:53 AM 93.0 °F 48.0 °F 21% 29.88 in 10.0 mi NE 5.8 mph 16.1 mph N/A   Clear
12:53 PM 96.1 °F 48.0 °F 19% 29.85 in 10.0 mi ENE 10.4 mph - N/A   Clear
1:53 PM 96.1 °F 45.0 °F 17% 29.82 in 10.0 mi NW 5.8 mph - N/A   Clear
2:53 PM 99.0 °F 39.9 °F 13% 29.78 in 10.0 mi West 8.1 mph - N/A   Clear
3:53 PM 100.0 °F 42.1 °F 14% 29.76 in 10.0 mi North 8.1 mph - N/A   Clear
4:53 PM 98.1 °F 46.0 °F 17% 29.75 in 10.0 mi NNE 10.4 mph 18.4 mph N/A   Clear
5:53 PM 97.0 °F 46.9 °F 18% 29.76 in 10.0 mi North 8.1 mph - N/A   Clear
6:38 PM 89.6 °F 46.4 °F 22% 30.01 in 1.8 mi NNW 34.5 mph 42.6 mph N/A   Haze
6:42 PM 89.6 °F 48.2 °F 24% 30.02 in 0.8 mi NNW 41.4 mph 54.1 mph 0.00 in Rain Light Rain
6:51 PM 87.8 °F 48.2 °F 25% 30.01 in 1.2 mi NNW 34.5 mph 49.5 mph 0.00 in Rain Light Rain
6:53 PM 87.1 °F 48.0 °F 26% 29.80 in 1.8 mi NNW 32.2 mph 46.0 mph 0.00 in Rain Light Rain
6:55 PM 87.8 °F 48.2 °F 25% 30.01 in 3.0 mi NNW 32.2 mph 44.9 mph N/A   Haze
7:26 PM 84.2 °F 48.2 °F 29% 30.04 in 1.8 mi North 40.3 mph 50.6 mph N/A   Haze
7:34 PM 82.4 °F 50.0 °F 32% 30.04 in 0.8 mi North 44.9 mph 56.4 mph N/A   Haze
7:44 PM 82.4 °F 48.2 °F 30% 30.06 in 1.8 mi NNW 46.0 mph 56.4 mph 0.00 in Rain Light Rain
7:47 PM 82.4 °F 48.2 °F 30% 30.06 in 3.0 mi NNW 41.4 mph 54.1 mph 0.00 in   Haze
7:53 PM 82.0 °F 48.9 °F 31% 29.84 in 3.0 mi North 36.8 mph 52.9 mph 0.00 in   Haze
8:04 PM 80.6 °F 50.0 °F 34% 30.04 in 5.0 mi North 38.0 mph 51.8 mph N/A   Haze
8:53 PM 75.0 °F 55.0 °F 50% 29.83 in 10.0 mi NE 23.0 mph 36.8 mph 0.00 in Rain Light Rain
9:53 PM 78.1 °F 53.1 °F 42% 29.87 in 9.0 mi NE 28.8 mph 43.7 mph 0.00 in Rain Light Rain
10:53 PM 73.9 °F 57.0 °F 55% 29.95 in 10.0 mi SE 17.3 mph 21.9 mph 0.00 in   Scattered Clouds
11:00 PM 73.4 °F 57.2 °F 57% 30.16 in 10.0 mi SE 16.1 mph - N/A   Scattered Clouds
11:53 PM 72.0 °F 57.0 °F 59% 29.94 in 10.0 mi South 11.5 mph - N/A   Clear